| time (UTC) | temp C | wind direction | speed KPH | gust KPH | rain 1hr cm | rain 24hr cm | rain mn cm | humidity % | barometer mb |
| 20260506114612 | -5 | 69 | 3.2 | 12.9 | 0.00 | 0.00 | 0.00 | 91 | 1008.8 |
| 20260506113010 | -5 | 338 | 4.8 | 12.9 | 0.00 | 0.00 | 0.00 | 91 | 1008.9 |
| 20260506111515 | -5 | 318 | 1.6 | 6.4 | 0.00 | 0.00 | 0.00 | 92 | 1008.6 |
| 20260506110039 | -5 | 343 | 0.0 | 6.4 | 0.00 | 0.00 | 0.00 | 92 | 1008.3 |
| 20260506104551 | -5 | 304 | 1.6 | 4.8 | 0.00 | 0.00 | 0.00 | 92 | 1008.1 |
| 20260506103038 | -5 | 304 | 0.0 | 4.8 | 0.00 | 0.00 | 0.00 | 92 | 1008.0 |
| 20260506101550 | -4 | 309 | 0.0 | 3.2 | 0.00 | 0.00 | 0.00 | 92 | 1007.9 |
| 20260506100050 | -4 | 341 | 0.0 | 0.0 | 0.00 | 0.00 | 0.00 | 92 | 1007.7 |
| 20260506094551 | -4 | 341 | 0.0 | 0.0 | 0.00 | 0.00 | 0.00 | 92 | 1007.5 |
| 20260506093055 | -4 | 349 | 0.0 | 6.4 | 0.00 | 0.00 | 0.00 | 92 | 1007.5 |
| 20260506091553 | -4 | 327 | 0.0 | 6.4 | 0.00 | 0.00 | 0.00 | 92 | 1007.7 |
| 20260506090054 | -3 | 323 | 0.0 | 1.6 | 0.00 | 0.00 | 0.00 | 92 | 1007.6 |
| 20260506084548 | -3 | 67 | 1.6 | 6.4 | 0.00 | 0.00 | 0.00 | 92 | 1007.4 |
| 20260506083044 | -3 | 325 | 0.0 | 1.6 | 0.00 | 0.00 | 0.00 | 93 | 1007.4 |
| 20260506081524 | -3 | 312 | 1.6 | 4.8 | 0.00 | 0.00 | 0.00 | 92 | 1007.3 |
| 20260506073058 | -3 | 304 | 0.0 | 0.0 | 0.00 | 0.00 | 0.00 | 93 | 1007.0 |
| 20260506071558 | -3 | 304 | 0.0 | 0.0 | 0.00 | 0.00 | 0.00 | 93 | 1007.0 |
| 20260506070118 | -3 | 304 | 0.0 | 0.0 | 0.00 | 0.00 | 0.00 | 93 | 1006.9 |
| 20260506061616 | -2 | 304 | 0.0 | 0.0 | 0.00 | 0.00 | 0.00 | 93 | 1006.7 |
| 20260506050130 | -2 | 304 | 0.0 | 4.8 | 0.00 | 0.00 | 0.00 | 94 | 1005.9 |
| 20260506044522 | -2 | 247 | 1.6 | 6.4 | 0.00 | 0.00 | 0.00 | 93 | 1005.9 |
| 20260506043045 | -1 | 270 | 0.0 | 4.8 | 0.00 | 0.00 | 0.00 | 94 | 1005.7 |
| 20260506041521 | -1 | 263 | 0.0 | 0.0 | 0.00 | 0.00 | 0.00 | 94 | 1005.3 |
| 20260506040007 | -1 | 263 | 0.0 | 0.0 | 0.00 | 0.00 | 0.00 | 94 | 1005.0 |
| 20260506034622 | -1 | 263 | 0.0 | 3.2 | 0.00 | 0.00 | 0.00 | 94 | 1004.9 |
| 20260506033131 | -1 | 263 | 0.0 | 3.2 | 0.00 | 0.00 | 0.00 | 94 | 1004.9 |
| 20260506031604 | -1 | 172 | 3.2 | 6.4 | 0.00 | 0.00 | 0.00 | 94 | 1004.7 |
| 20260506030115 | -1 | 208 | 0.0 | 6.4 | 0.00 | 0.00 | 0.00 | 94 | 1004.4 |
| 20260506024616 | -1 | 261 | 1.6 | 4.8 | 0.00 | 0.00 | 0.00 | 94 | 1004.1 |
| 20260506023037 | -1 | 188 | 0.0 | 11.3 | 0.00 | 0.00 | 0.00 | 94 | 1003.7 |
| 20260506021523 | -1 | 263 | 0.0 | 0.0 | 0.00 | 0.00 | 0.00 | 94 | 1003.4 |
| 20260506020050 | -1 | 263 | 0.0 | 3.2 | 0.00 | 0.00 | 0.00 | 93 | 1003.2 |
| 20260506014603 | -1 | 263 | 0.0 | 3.2 | 0.00 | 0.00 | 0.00 | 93 | 1002.8 |
| 20260506013112 | 0 | 268 | 0.0 | 6.4 | 0.00 | 0.00 | 0.00 | 93 | 1002.5 |
| 20260506011604 | 0 | 315 | 0.0 | 0.0 | 0.00 | 0.00 | 0.00 | 93 | 1001.9 |
| 20260506010101 | 0 | 315 | 0.0 | 0.0 | 0.00 | 0.00 | 0.00 | 93 | 1001.6 |
| 20260506004630 | 0 | 345 | 0.0 | 6.4 | 0.00 | 0.00 | 0.00 | 93 | 1001.4 |
| 20260506003129 | 0 | 294 | 1.6 | 9.7 | 0.00 | 0.00 | 0.00 | 92 | 1001.5 |
| 20260506001517 | 0 | 306 | 3.2 | 8.0 | 0.00 | 0.00 | 0.00 | 91 | 1001.9 |
| 20260506000110 | 0 | 237 | 3.2 | 4.8 | 0.00 | 0.00 | 0.00 | 90 | 1001.3 |
| 20260505234618 | 0 | 237 | 1.6 | 8.0 | 0.00 | 0.00 | 0.00 | 89 | 1000.9 |
| 20260505233100 | 1 | 193 | 1.6 | 11.3 | 0.00 | 0.00 | 0.00 | 88 | 1000.4 |
| 20260505231559 | 1 | 150 | 1.6 | 9.7 | 0.00 | 0.00 | 0.00 | 87 | 1000.3 |
| 20260505230116 | 2 | 275 | 3.2 | 8.0 | 0.00 | 0.00 | 0.00 | 84 | 1000.3 |
| 20260505224609 | 2 | 325 | 3.2 | 19.3 | 0.00 | 0.00 | 0.00 | 82 | 999.8 |
| 20260505223118 | 2 | 275 | 6.4 | 22.5 | 0.00 | 0.00 | 0.00 | 83 | 999.5 |
| 20260505221618 | 2 | 170 | 6.4 | 14.5 | 0.00 | 0.00 | 0.00 | 84 | 999.4 |
| 20260505220147 | 2 | 145 | 4.8 | 14.5 | 0.00 | 0.00 | 0.00 | 84 | 999.5 |
| 20260505214616 | 1 | 163 | 4.8 | 17.7 | 0.00 | 0.00 | 0.00 | 88 | 999.6 |
| 20260505213054 | 1 | 150 | 6.4 | 14.5 | 0.00 | 0.00 | 0.00 | 90 | 999.9 |
| 20260505211611 | 0 | 160 | 3.2 | 12.9 | 0.00 | 0.00 | 0.00 | 91 | 1000.1 |
| 20260505204601 | 1 | 163 | 6.4 | 14.5 | 0.00 | 0.00 | 0.00 | 85 | 1000.2 |
| 20260505203104 | 2 | 159 | 3.2 | 11.3 | 0.00 | 0.00 | 0.00 | 83 | 1000.3 |
| 20260505201615 | 2 | 244 | 1.6 | 11.3 | 0.00 | 0.00 | 0.00 | 82 | 999.9 |
| 20260505200108 | 2 | 210 | 3.2 | 17.7 | 0.00 | 0.00 | 0.00 | 82 | 999.9 |
| 20260505194609 | 2 | 155 | 4.8 | 16.1 | 0.00 | 0.00 | 0.00 | 85 | 1000.0 |
| 20260505193122 | 2 | 196 | 6.4 | 12.9 | 0.00 | 0.00 | 0.00 | 83 | 1000.1 |
| 20260505191628 | 2 | 254 | 1.6 | 14.5 | 0.00 | 0.00 | 0.00 | 86 | 1000.1 |
| 20260505190013 | 2 | 192 | 6.4 | 14.5 | 0.00 | 0.00 | 0.00 | 85 | 999.8 |
| 20260505184528 | 2 | 185 | 8.0 | 17.7 | 0.00 | 0.00 | 0.00 | 87 | 1000.0 |
| 20260505183102 | 1 | 163 | 6.4 | 16.1 | 0.00 | 0.00 | 0.00 | 90 | 1000.0 |
| 20260505181505 | 1 | 196 | 8.0 | 16.1 | 0.00 | 0.00 | 0.00 | 91 | 999.9 |
| 20260505180020 | 1 | 184 | 11.3 | 19.3 | 0.00 | 0.00 | 0.00 | 91 | 1000.1 |
| 20260505174507 | 1 | 208 | 8.0 | 22.5 | 0.00 | 0.00 | 0.00 | 90 | 1000.0 |
| 20260505173022 | 1 | 166 | 6.4 | 14.5 | 0.00 | 0.00 | 0.00 | 90 | 1000.0 |
| 20260505171536 | 1 | 211 | 6.4 | 14.5 | 0.00 | 0.00 | 0.00 | 90 | 1000.2 |
| 20260505170044 | 1 | 128 | 9.7 | 14.5 | 0.00 | 0.00 | 0.00 | 90 | 1000.4 |
| 20260505164547 | 1 | 180 | 8.0 | 14.5 | 0.00 | 0.00 | 0.00 | 91 | 1000.3 |
| 20260505163108 | 1 | 150 | 6.4 | 14.5 | 0.00 | 0.00 | 0.00 | 91 | 1000.4 |
| 20260505161623 | 1 | 138 | 4.8 | 16.1 | 0.00 | 0.00 | 0.00 | 90 | 1000.4 |
| 20260505160112 | 1 | 201 | 6.4 | 16.1 | 0.00 | 0.00 | 0.00 | 90 | 1000.4 |
| 20260505153052 | 1 | 144 | 4.8 | 16.1 | 0.00 | 0.00 | 0.00 | 90 | 1000.4 |
| 20260505151553 | 1 | 148 | 9.7 | 14.5 | 0.00 | 0.00 | 0.00 | 88 | 1000.3 |
| 20260505150105 | 1 | 146 | 4.8 | 9.7 | 0.00 | 0.00 | 0.00 | 87 | 1000.3 |
| 20260505124549 | 1 | 173 | 0.0 | 1.6 | 0.00 | 0.00 | 0.00 | 93 | 999.9 |
| 20260505123046 | 1 | 173 | 0.0 | 8.0 | 0.00 | 0.00 | 0.00 | 93 | 999.7 |
| 20260505121551 | 1 | 175 | 0.0 | 0.0 | 0.00 | 0.00 | 0.00 | 92 | 999.7 |
| 20260505120114 | 1 | 175 | 0.0 | 0.0 | 0.00 | 0.00 | 0.00 | 92 | 999.5 |